#timestamp,LO_Frequency,Hit,StdDev 
1508479215.8,286046998.6,N
1508479235.7,286047002.6,N
1508479255.5,286047001.8,N
1508479275.3,286047003.7,N
1508479295.2,286047004.0,N
1508479315.0,286047000.4,N
1508479315.9,286047000.4,N
1508479335.8,286046998.1,N
1508479355.6,286046998.7,N
1508479375.4,286046998.1,N
1508479395.3,286046998.3,N
1508479415.1,286047000.7,N
1508479435.8,286046998.4,N
1508479455.7,286046998.2,N
1508479475.5,286047002.4,N
1508479495.4,286047000.3,N
1508479515.2,286047000.6,N
1508479535.0,286047000.5,N
1508479535.9,286047000.5,N
1508479555.8,286047000.8,N
1508479575.6,286047000.2,N
1508479595.4,286046999.7,N
1508479615.3,286047001.0,N
1508479635.1,286047002.3,N
1508479655.9,286047002.5,N
1508479675.7,286047002.6,N
1508479695.5,286046999.8,N
1508479715.4,286047001.1,N
1508479735.2,286047000.5,N
1508479755.0,286046998.9,N
1508479756.0,286046998.9,N
1508479775.8,286046998.4,N
1508479795.6,286046999.0,N
1508479815.5,286046998.2,N
1508479835.3,286046998.1,N
1508479855.1,286046998.1,N
1508479875.9,286046999.0,N
1508479895.7,286046999.2,N
1508479915.6,286046996.6,N
1508479935.4,286046996.7,N
1508479955.2,286046996.9,N
1508479975.1,286046994.9,Y
1508479976.0,286046994.9,P
1508479995.8,286046997.4,N
1508480015.7,286046997.5,N
1508480035.5,286046997.9,N
1508480055.3,286046998.7,N
1508480075.2,286046998.4,N
1508480095.0,286046997.0,N
1508480095.9,286046997.0,N
1508480115.8,286046997.8,N
1508480135.6,286046999.0,N
1508480155.4,286046999.1,N
1508480175.3,286046999.4,N
1508480195.1,286046999.3,N
1508480215.9,286046999.5,N
1508480235.7,286046999.4,N
1508480255.5,286046999.3,N
1508480275.4,286046999.4,N
1508480295.2,286046996.5,N
1508480315.0,286046996.7,N
1508480315.9,286046996.7,N
1508480335.8,286046997.1,N
1508480355.6,286046997.0,N
1508480375.5,286046997.2,N
1508480395.3,286046997.1,N
1508480415.1,286046996.7,N
1508480435.9,286046997.8,N
1508480455.7,286046997.6,N
1508480475.5,286046995.3,Y
1508480495.4,286046999.1,P
1508480515.2,286046999.2,N
1508480535.1,286046997.1,P
1508480536.0,286046997.1,Y
1508480555.8,286046999.1,P
1508480575.6,286047000.6,N
1508480595.5,286047000.3,N
1508480615.3,286047001.5,N
1508480635.1,286047002.1,N
1508480655.9,286047002.7,N
1508480675.7,286047000.9,N
1508480695.6,286046998.3,N
1508480715.4,286046999.5,N
1508480735.2,286046997.3,N
1508480755.1,286046998.5,N
1508480756.0,286046998.5,N
1508480775.8,286047000.8,N
1508480795.6,286047001.1,N
1508480815.5,286047000.4,N
1508480835.3,286046998.6,N
1508480855.2,286046999.3,N
1508480875.9,286046999.5,N
1508480895.7,286046997.7,N
1508480915.6,286046997.1,N
1508480935.4,286046996.8,N
1508480955.2,286046997.1,N
1508480975.1,286046997.4,N
1508480976.0,286046997.4,N
1508480995.8,286046998.0,N
1508481015.7,286046997.6,N
1508481035.5,286046997.9,N
1508481055.3,286046995.0,Y
1508481075.2,286046996.7,P
1508481095.0,286046999.5,N
1508481095.9,286046999.5,N
1508481115.8,286046995.0,Y
1508481135.6,286046999.6,P
1508481155.4,286046999.6,N
1508481175.3,286046999.1,N
1508481195.1,286046998.5,Y
1508481215.9,286046998.6,P
1508481235.7,286046998.5,P
1508481255.5,286047000.0,N
1508481275.4,286047001.2,N
1508481295.2,286046998.1,N
1508481315.0,286047002.7,N
1508481315.9,286047002.7,N
1508481335.8,286047000.3,N
1508481355.6,286047001.2,N
1508481375.5,286047000.7,N
1508481395.3,286047000.0,N
1508481415.1,286046999.7,N
1508481435.9,286047001.9,N
1508481455.7,286047001.9,N
1508481475.5,286047001.7,N
1508481495.4,286047003.5,N
1508481515.2,286047003.9,N
1508481535.0,286047002.1,N
1508481535.9,286047002.1,N
1508481555.8,286047002.2,N
1508481575.6,286046999.8,N
1508481595.5,286047002.3,N
1508481615.3,286047000.1,N
1508481635.1,286047002.4,N
1508481655.9,286047002.7,N
1508481675.7,286047002.5,N
1508481695.5,286047002.6,N
1508481715.4,286047001.9,N
1508481735.2,286046999.8,N
1508481755.1,286047000.3,N
1508481756.0,286047000.3,N
1508481775.8,286047000.5,N
1508481795.6,286047000.3,N
1508481815.5,286047001.9,N
1508481835.3,286047004.1,Y
1508481855.1,286047002.3,P
1508481875.9,286047001.0,N
1508481895.7,286046999.8,N
1508481915.6,286047002.6,N
1508481935.4,286047002.8,N
1508481955.2,286047002.4,N
1508481975.1,286047000.5,N
1508481976.0,286047000.5,N
1508481995.8,286047001.5,N
1508482015.7,286047003.9,Y
1508482035.5,286047002.5,P
1508482055.3,286047001.8,P
1508482075.2,286047002.7,P
1508482095.0,286047000.6,N
1508482095.9,286047000.6,N
1508482115.8,286047000.9,N
1508482135.6,286047001.2,N
1508482155.4,286047000.4,N
1508482175.3,286047002.3,N
1508482195.1,286047004.1,Y
1508482215.9,286047001.6,P
1508482235.7,286046998.5,P
1508482255.5,286046999.0,N
1508482275.4,286046998.5,N
1508482295.2,286047001.1,N
1508482315.1,286047000.8,N
1508482316.0,286047000.8,N
1508482335.8,286047000.4,N
1508482355.6,286047000.9,N
1508482375.5,286047000.2,N
1508482395.3,286047000.9,N
1508482415.1,286047000.4,N
1508482435.9,286046998.2,N
1508482455.7,286046998.2,N
1508482475.6,286047000.9,N
1508482495.4,286047001.1,N
1508482515.2,286046998.5,N
1508482535.1,286047001.0,N
1508482536.0,286047001.0,N
1508482555.8,286047000.9,N
1508482575.7,286047000.6,N
1508482595.5,286047001.0,N
1508482615.3,286047000.9,N
1508482635.2,286047001.1,N
1508482655.0,286047002.2,N
1508482655.9,286047002.2,N
1508482675.7,286047000.7,N
1508482695.6,286047002.3,N
1508482715.4,286046999.7,N
1508482735.3,286046999.8,N
1508482755.1,286047002.1,N
1508482775.8,286047002.5,N
1508482795.7,286046999.8,N
